Weather History for Copper Mountain, CO

Change the Weather History Date:

Sunday, April 28, 2013

  Actual Average (KLXV) Record (KLXV)
Temperature  
Mean Temperature 39 °F -  
Max Temperature 46 °F 48 °F 63 °F (1992)
Min Temperature 32 °F 22 °F -1 °F (1984)
Degree Days  
Heating Degree Days 26 30  
Month to date heating degree days 959  
Since 1 July heating degree days 9942  
Cooling Degree Days 0 0  
Month to date cooling degree days 0  
Year to date cooling degree days 0  
Moisture  
Dew Point 11 °F    
Average Humidity 32    
Maximum Humidity 52    
Minimum Humidity 23    
Precipitation  
Precipitation 0.00 in 0.04 in 0.63 in (2006)
Month to date precipitation 1.00  
Year to date precipitation 3.26  
Sea Level Pressure  
Sea Level Pressure 30.34 in    
Wind  
Wind Speed 18 mph (West)    
Max Wind Speed 29 mph    
Max Gust Speed 37 mph    
Visibility 10 miles    
Events Snow    
T = Trace of Precipitation, MM = Missing Value Source: NWS Daily Summary

Daily Weather History Graph

Daily Weather History Graph

Search for Another Location

Airport:

Trip Planner

Search our weather history database for the weather conditions in past years. The results will help you decide how hot, cold, wet, or windy it might be!

Date:

Astronomy

Apr. 28, 2013 Rise Set
Actual Time 6:09 AM MDT 7:55 PM MDT
Civil Twilight 5:40 AM MDT 8:24 PM MDT
Nautical Twilight 5:05 AM MDT 8:59 PM MDT
Astronomical Twilight 4:28 AM MDT 9:37 PM MDT
Moon 11:28 PM MDT (4/28) 8:28 AM MDT (4/28)
Length of Visible Light 14h 44m
Length of Day
13h 46m
Waning Gibbous, 88% of the Moon is Illuminated
Apr 28
Waning Gibbous
May 2
Last Quarter
May 9
New
May 17
First Quarter
May 24
Full

Hourly Weather History & Observations

Time (MDT) Temp. Windchill Dew Point Humidity Pressure Visibility Wind Dir Wind Speed Gust Speed Precip Events Conditions
12:12 AM 33.8 °F 22.8 °F 8.6 °F 35% 30.41 in 10.0 mi West 18.4 mph 21.9 mph N/A   Clear
12:32 AM 33.8 °F 23.5 °F 8.6 °F 35% 30.41 in 10.0 mi WSW 16.1 mph 24.2 mph N/A   Clear
12:52 AM 35.6 °F 23.7 °F 6.8 °F 30% 30.40 in 10.0 mi West 24.2 mph 29.9 mph N/A   Clear
1:12 AM 33.8 °F 23.5 °F 5.0 °F 30% 30.40 in 10.0 mi WSW 16.1 mph 27.6 mph N/A   Clear
1:32 AM 33.8 °F 23.5 °F 5.0 °F 30% 30.39 in 10.0 mi WSW 16.1 mph 26.5 mph N/A   Clear
1:52 AM 35.6 °F 24.8 °F 1.4 °F 24% 30.38 in 10.0 mi West 19.6 mph 29.9 mph N/A   Clear
2:12 AM 33.8 °F 26.4 °F 3.2 °F 28% 30.38 in 10.0 mi West 9.2 mph - N/A   Clear
2:32 AM 33.8 °F 25.3 °F 5.0 °F 30% 30.38 in 10.0 mi West 11.5 mph - N/A   Clear
2:52 AM 33.8 °F 28.6 °F 6.8 °F 32% 30.38 in 10.0 mi SW 5.8 mph - N/A   Clear
3:12 AM 33.8 °F 23.5 °F 3.2 °F 28% 30.38 in 10.0 mi West 16.1 mph - N/A   Clear
3:32 AM 32.0 °F 21.6 °F 5.0 °F 32% 30.38 in 10.0 mi West 15.0 mph - N/A   Clear
3:52 AM 33.8 °F 23.9 °F 5.0 °F 30% 30.38 in 10.0 mi West 15.0 mph - N/A   Clear
4:12 AM 33.8 °F 22.2 °F 6.8 °F 32% 30.36 in 10.0 mi West 20.7 mph - N/A   Clear
4:32 AM 33.8 °F 21.6 °F 8.6 °F 35% 30.36 in 10.0 mi West 23.0 mph - N/A   Clear
4:52 AM 33.8 °F 21.3 °F 8.6 °F 35% 30.35 in 10.0 mi West 24.2 mph - N/A   Clear
5:12 AM 33.8 °F 21.9 °F 10.4 °F 38% 30.36 in 10.0 mi West 21.9 mph - N/A   Clear
5:32 AM 33.8 °F 22.2 °F 10.4 °F 38% 30.36 in 10.0 mi West 20.7 mph - N/A   Clear
5:52 AM 33.8 °F 21.6 °F 12.2 °F 41% 30.36 in 10.0 mi West 23.0 mph - N/A   Clear
6:12 AM 33.8 °F 22.2 °F 10.4 °F 38% 30.36 in 10.0 mi West 20.7 mph - N/A   Clear
6:22 AM 33.8 °F 23.5 °F 10.4 °F 38% 30.36 in 10.0 mi West 16.1 mph - N/A   Clear
7:12 AM 33.8 °F 23.2 °F 12.2 °F 41% 30.36 in 10.0 mi West 17.3 mph - N/A   Clear
7:32 AM 33.8 °F 23.5 °F 12.2 °F 41% 30.36 in 10.0 mi West 16.1 mph - N/A   Clear
7:52 AM 33.8 °F 25.3 °F 10.4 °F 38% 30.36 in 10.0 mi West 11.5 mph 18.4 mph N/A   Clear
8:12 AM 35.6 °F 24.5 °F 10.4 °F 35% 30.36 in 10.0 mi West 20.7 mph - N/A   Clear
8:32 AM 35.6 °F 24.5 °F 10.4 °F 35% 30.36 in 10.0 mi West 20.7 mph 26.5 mph N/A   Clear
8:52 AM 37.4 °F 26.6 °F 12.2 °F 36% 30.36 in 10.0 mi West 21.9 mph 26.5 mph N/A   Clear
9:12 AM 37.4 °F 28.5 °F 12.2 °F 36% 30.36 in 10.0 mi West 15.0 mph 21.9 mph N/A   Clear
9:32 AM 37.4 °F 28.9 °F 12.2 °F 36% 30.36 in 10.0 mi WNW 13.8 mph 26.5 mph N/A   Clear
9:52 AM 39.2 °F 29.0 °F 10.4 °F 31% 30.34 in 10.0 mi WNW 21.9 mph 29.9 mph N/A   Clear
9:53 AM 39.2 °F 29.0 °F 10.4 °F 31% 30.35 in 10.0 mi WNW 21.9 mph 29.9 mph N/A   Clear
10:52 AM 41.0 °F 30.2 °F 8.6 °F 26% 30.34 in 10.0 mi West 27.6 mph 36.8 mph N/A   Clear
11:12 AM 41.0 °F 30.2 °F 8.6 °F 26% 30.35 in 10.0 mi West 27.6 mph 35.7 mph N/A   Clear
11:32 AM 42.8 °F 33.1 °F 8.6 °F 25% 30.35 in 10.0 mi WNW 25.3 mph 31.1 mph N/A   Clear
11:52 AM 44.6 °F 35.7 °F 10.4 °F 25% 30.36 in 10.0 mi WNW 24.2 mph 31.1 mph N/A   Clear
12:12 PM 44.6 °F 37.2 °F 12.2 °F 27% 30.35 in 10.0 mi WNW 17.3 mph 23.0 mph N/A   Clear
12:32 PM 44.6 °F 38.8 °F 14.0 °F 29% 30.34 in 10.0 mi WNW 11.5 mph 32.2 mph N/A   Clear
12:52 PM 44.6 °F 37.2 °F 12.2 °F 27% 30.34 in 10.0 mi WNW 17.3 mph 28.8 mph N/A   Clear
1:12 PM 44.6 °F 36.9 °F 12.2 °F 27% 30.34 in 10.0 mi WNW 18.4 mph 26.5 mph N/A   Clear
1:32 PM 44.6 °F 37.8 °F 12.2 °F 27% 30.34 in 10.0 mi West 15.0 mph 26.5 mph N/A   Clear
1:52 PM 44.6 °F 36.1 °F 12.2 °F 27% 30.34 in 10.0 mi West 21.9 mph 32.2 mph N/A   Clear
2:12 PM 44.6 °F 36.4 °F 12.2 °F 27% 30.33 in 10.0 mi West 20.7 mph 29.9 mph N/A   Clear
2:32 PM 44.6 °F 36.4 °F 10.4 °F 25% 30.33 in 10.0 mi West 20.7 mph 27.6 mph N/A   Clear
2:52 PM 46.4 °F 39.5 °F 10.4 °F 23% 30.33 in 10.0 mi West 17.3 mph 32.2 mph N/A   Clear
3:12 PM 46.4 °F 40.7 °F 12.2 °F 25% 30.32 in 10.0 mi West 12.7 mph - N/A   Clear
3:32 PM 46.4 °F 41.9 °F 14.0 °F 27% 30.31 in 10.0 mi WNW 9.2 mph 23.0 mph N/A   Clear
3:52 PM 46.4 °F 41.9 °F 12.2 °F 25% 30.31 in 10.0 mi WSW 9.2 mph 20.7 mph N/A   Scattered Clouds
4:12 PM 46.4 °F 38.5 °F 12.2 °F 25% 30.31 in 10.0 mi WNW 21.9 mph 27.6 mph N/A   Scattered Clouds
4:32 PM 46.4 °F 37.9 °F 12.2 °F 25% 30.29 in 10.0 mi West 25.3 mph 34.5 mph N/A   Scattered Clouds
4:52 PM 46.4 °F 37.4 °F 12.2 °F 25% 30.29 in 10.0 mi West 28.8 mph 32.2 mph N/A   Clear
5:12 PM 44.6 °F 35.9 °F 12.2 °F 27% 30.30 in 10.0 mi West 23.0 mph 29.9 mph N/A   Scattered Clouds
5:32 PM 46.4 °F 38.3 °F 12.2 °F 25% 30.30 in 10.0 mi West 23.0 mph 27.6 mph N/A   Scattered Clouds
5:52 PM 44.6 °F 35.9 °F 10.4 °F 25% 30.29 in 10.0 mi West 23.0 mph 29.9 mph N/A   Scattered Clouds
6:12 PM 44.6 °F 36.1 °F 12.2 °F 27% 30.29 in 10.0 mi West 21.9 mph 28.8 mph N/A   Mostly Cloudy
6:32 PM 44.6 °F 36.1 °F 12.2 °F 27% 30.29 in 10.0 mi West 21.9 mph 33.4 mph N/A   Overcast
6:52 PM 44.6 °F 37.4 °F 12.2 °F 27% 30.29 in 10.0 mi West 16.1 mph 24.2 mph N/A   Overcast
7:12 PM 44.6 °F 35.9 °F 12.2 °F 27% 30.28 in 10.0 mi West 23.0 mph 26.5 mph N/A   Overcast
7:32 PM 44.6 °F 36.1 °F 12.2 °F 27% 30.29 in 10.0 mi West 21.9 mph 28.8 mph N/A   Mostly Cloudy
7:52 PM 42.8 °F 34.8 °F 14.0 °F 31% 30.29 in 10.0 mi West 17.3 mph - N/A   Scattered Clouds
8:12 PM 41.0 °F 34.3 °F 17.6 °F 39% 30.29 in 10.0 mi WSW 11.5 mph 21.9 mph N/A   Clear
8:32 PM 41.0 °F 34.3 °F 17.6 °F 39% 30.29 in 10.0 mi WSW 11.5 mph 18.4 mph N/A   Clear
8:52 PM 37.4 °F 30.3 °F 17.6 °F 45% 30.30 in 10.0 mi WSW 10.4 mph - N/A   Scattered Clouds
9:12 PM 39.2 °F 31.6 °F 17.6 °F 42% 30.30 in 10.0 mi WSW 12.7 mph - N/A   Mostly Cloudy
9:32 PM 39.2 °F 33.0 °F 17.6 °F 42% 30.30 in 10.0 mi WSW 9.2 mph 15.0 mph N/A   Scattered Clouds
9:52 PM 39.2 °F 31.6 °F 17.6 °F 42% 30.29 in 10.0 mi WSW 12.7 mph - N/A   Scattered Clouds
10:12 PM 39.2 °F 32.0 °F 15.8 °F 39% 30.29 in 10.0 mi WSW 11.5 mph - N/A   Scattered Clouds
10:32 PM 39.2 °F 30.8 °F 15.8 °F 39% 30.29 in 10.0 mi WSW 15.0 mph 20.7 mph N/A   Mostly Cloudy
10:52 PM 39.2 °F 30.5 °F 15.8 °F 39% 30.28 in 10.0 mi WSW 16.1 mph - N/A   Overcast
11:12 PM 41.0 °F 31.6 °F 17.6 °F 39% 30.28 in 10.0 mi West 20.7 mph 33.4 mph N/A   Overcast
11:32 PM 37.4 °F 27.8 °F 21.2 °F 52% 30.28 in 5.0 mi West 17.3 mph 34.5 mph N/A Snow Light Snow
11:52 PM 37.4 °F 27.5 °F 21.2 °F 52% 30.29 in 10.0 mi WNW 18.4 mph 25.3 mph N/A   Overcast